User: anonymous   Login
Location: Newark
(33.6439°N, 114.9881°W)
Time: 13:52:01
(UTC+00:00)
Language:

Tiros 1 despin weight - Orbit

View from above orbital plane
View from above orbital plane
View from above satellite
View from above satellite

Ground track
Ground track

The orbit data is extracted from the following two-line orbital elements,

1   115U 60002D   19201.80804184 -.00000135 +00000-0 +10964-4 0  9995
2   115 048.1674 073.6357 0034636 223.5331 136.2847 14.83455041142420
Epoch (UTC): 20 July 2019 19:23:34
Eccentricity: 0.0034636
inclination: 48.1674°
perigee height: 594 km
apogee height: 642 km
right ascension of ascending node: 73.6357°
argument of perigee: 223.5331°
revolutions per day: 14.83455041
mean anomaly at epoch: 136.2847°
orbit number at epoch: 14242

The dashed part of the orbit path shows where the satellite is in the earth's shadow,  

DLR